Location: Siratepeler Tepesi
(39.1042°N, 32.0781°E)
Time: 01:32:02
(UTC+00:00)

CZ-3C R/B - Pass Details

Date: 11 April 2026
Orbit: 304 x 31798 km, 20.8° (Epoch: 13 May)

Event Time Altitude Azimuth Distance (km) Brightness Sun altitude
Rises 17:14:51 0° 263° (W) 9,901 8.4 -10.1°
Reaches altitude 10° 17:28:03 10° 244° (WSW) 4,728 6.2 -12.5°
Maximum altitude 17:32:47 13° 219° (SW) 2,955 4.7 -13.4°
Drops below altitude 10° 17:35:28 10° 189° (S) 2,390 3.9 -13.8°
Enters shadow 17:36:57 - 170° (S) 2,397 3.8 -14.1°
